GW6551 Weather Reports


time (UTC)temp
C
wind
direction
speed
KPH
gust
KPH
rain 1hr
cm
rain 24hr
cm
rain mn
cm
humidity
%
barometer
mb
20260504160227 22 317 4.8 4.8 0.00 0.00 0.00 40 1017.8
20260504150652 21 259 6.4 9.7 0.00 0.00 0.00 45 1017.8
20260504150149 21 257 4.8 8.0 0.00 0.00 0.00 48 1018.1
20260504141118 19 310 1.6 3.2 0.00 0.00 0.00 59 1018.2
20260504140615 20 240 6.4 8.0 0.00 0.00 0.00 57 1018.6
20260504140110 19 40 1.6 1.6 0.00 0.00 0.00 58 1018.5
20260504130539 16 120 3.2 3.2 0.00 0.00 0.00 66 1018.2
20260504110426 7 65 0.0 1.6 0.00 0.00 0.00 89 1017.5
20260504100349 7 336 1.6 1.6 0.00 0.00 0.00 89 1017.4
20260504081742 8 82 3.2 3.2 0.00 0.00 0.00 89 1017.2
20260504081238 8 40 0.0 0.0 0.00 0.00 0.00 89 1017.5
20260504080735 8 52 1.6 1.6 0.00 0.00 0.00 89 1017.4
20260504080232 8 40 0.0 0.0 0.00 0.00 0.00 89 1017.6
20260504070159 10 69 1.6 1.6 0.00 0.00 0.00 85 1018.0
20260504060120 10 34 0.0 0.0 0.00 0.00 0.00 87 1018.6
20260504050548 11 50 0.0 0.0 0.00 0.00 0.00 80 1018.4
20260504045541 11 21 0.0 1.6 0.00 0.00 0.00 81 1018.8
20260504045037 12 30 0.0 0.0 0.00 0.00 0.00 76 1018.7
20260504044535 12 53 0.0 0.0 0.00 0.00 0.00 75 1018.5
20260504044031 12 79 1.6 1.6 0.00 0.00 0.00 76 1018.8
20260504043528 11 37 0.0 0.0 0.00 0.00 0.00 78 1018.6
20260504043026 11 54 0.0 0.0 0.00 0.00 0.00 79 1018.7
20260504042522 12 92 1.6 1.6 0.00 0.00 0.00 79 1018.9
20260504042020 12 134 3.2 3.2 0.00 0.00 0.00 78 1018.6
20260504041515 12 54 0.0 0.0 0.00 0.00 0.00 76 1018.8
20260504041011 12 52 0.0 0.0 0.00 0.00 0.00 75 1019.1
20260504040509 12 15 1.6 1.6 0.00 0.00 0.00 77 1018.9
20260504040006 12 52 0.0 0.0 0.00 0.00 0.00 74 1018.9
20260504035503 12 44 0.0 0.0 0.00 0.00 0.00 75 1018.7
20260504034959 12 20 0.0 0.0 0.00 0.00 0.00 75 1018.9
20260504034457 12 53 0.0 0.0 0.00 0.00 0.00 77 1018.8
20260504033954 12 63 1.6 1.6 0.00 0.00 0.00 77 1019.0
20260504033451 12 50 0.0 0.0 0.00 0.00 0.00 77 1019.0
20260504032948 12 50 0.0 0.0 0.00 0.00 0.00 76 1018.9
20260504032445 12 47 0.0 0.0 0.00 0.00 0.00 75 1019.1
20260504031942 12 46 0.0 0.0 0.00 0.00 0.00 74 1019.1
20260504031439 13 46 0.0 0.0 0.00 0.00 0.00 71 1018.9
20260504030936 13 46 0.0 0.0 0.00 0.00 0.00 72 1018.7
20260504030433 13 49 1.6 1.6 0.00 0.00 0.00 70 1018.9
20260504025928 13 38 0.0 1.6 0.00 0.00 0.00 71 1018.9
20260504025426 13 357 1.6 1.6 0.00 0.00 0.00 72 1019.0
20260504024923 14 40 0.0 0.0 0.00 0.00 0.00 65 1018.9
20260504024420 14 59 1.6 1.6 0.00 0.00 0.00 64 1018.7
20260504023917 15 70 1.6 1.6 0.00 0.00 0.00 63 1018.6
20260504023413 15 46 0.0 1.6 0.00 0.00 0.00 62 1018.4
20260504022908 15 38 0.0 1.6 0.00 0.00 0.00 60 1018.6
20260504022405 15 48 0.0 0.0 0.00 0.00 0.00 62 1018.5
20260504021902 14 45 0.0 1.6 0.00 0.00 0.00 64 1018.5
20260504021359 15 66 0.0 1.6 0.00 0.00 0.00 65 1018.7
20260504020856 15 64 1.6 1.6 0.00 0.00 0.00 63 1018.8
20260504020353 15 47 0.0 0.0 0.00 0.00 0.00 64 1018.8
20260504015849 15 41 0.0 0.0 0.00 0.00 0.00 63 1018.5
20260504015345 16 42 0.0 1.6 0.00 0.00 0.00 58 1018.5
20260504014841 16 42 0.0 1.6 0.00 0.00 0.00 56 1018.4
20260504014337 16 45 1.6 1.6 0.00 0.00 0.00 55 1018.4
20260504013835 17 46 0.0 0.0 0.00 0.00 0.00 54 1018.0
20260504013333 17 48 1.6 1.6 0.00 0.00 0.00 53 1018.0
20260504012830 17 41 1.6 1.6 0.00 0.00 0.00 49 1018.1
20260504012327 17 47 1.6 1.6 0.00 0.00 0.00 53 1017.8
20260504011825 16 34 1.6 3.2 0.00 0.00 0.00 52 1017.7
20260504011321 16 73 1.6 1.6 0.00 0.00 0.00 57 1018.0
20260504010817 17 52 0.0 1.6 0.00 0.00 0.00 54 1017.6
20260504010313 17 35 0.0 1.6 0.00 0.00 0.00 52 1018.1
20260504005809 17 48 0.0 1.6 0.00 0.00 0.00 54 1018.1
20260504005306 17 44 0.0 1.6 0.00 0.00 0.00 54 1018.0
20260504004804 17 40 0.0 1.6 0.00 0.00 0.00 57 1017.8
20260504004301 17 47 1.6 1.6 0.00 0.00 0.00 53 1017.4
20260504003757 16 64 1.6 1.6 0.00 0.00 0.00 56 1017.6
20260504003255 17 69 1.6 1.6 0.00 0.00 0.00 58 1017.6
20260504002751 17 71 1.6 1.6 0.00 0.00 0.00 57 1017.5
20260504002248 18 66 1.6 1.6 0.00 0.00 0.00 52 1017.5
20260504001746 18 44 1.6 1.6 0.00 0.00 0.00 50 1017.2
20260504001243 20 34 1.6 1.6 0.00 0.00 0.00 49 1017.0
20260504000739 20 33 0.0 1.6 0.00 0.00 0.00 50 1017.3
20260504000236 20 26 0.0 1.6 0.00 0.00 0.00 50 1017.2
20260503235735 21 9 1.6 1.6 0.00 0.00 0.00 42 1016.9
20260503235231 21 16 1.6 1.6 0.00 0.00 0.00 41 1017.2
20260503234729 21 339 3.2 3.2 0.00 0.00 0.00 41 1017.1
20260503234227 21 10 1.6 3.2 0.00 0.00 0.00 39 1016.9
20260503233724 22 299 6.4 8.0 0.00 0.00 0.00 35 1017.1
20260503233219 22 15 6.4 8.0 0.00 0.00 0.00 37 1016.9
20260503232717 22 318 6.4 8.0 0.00 0.00 0.00 37 1017.0
20260503232214 22 346 6.4 8.0 0.00 0.00 0.00 36 1017.2
20260503231712 22 317 6.4 8.0 0.00 0.00 0.00 35 1017.3
20260503231208 22 357 4.8 8.0 0.00 0.00 0.00 35 1017.2
20260503230705 22 316 9.7 11.3 0.00 0.00 0.00 35 1017.4
20260503230202 22 340 4.8 4.8 0.00 0.00 0.00 35 1017.3
20260503225659 23 309 9.7 11.3 0.00 0.00 0.00 33 1017.3
20260503225159 22 20 4.8 4.8 0.00 0.00 0.00 35 1017.2
20260503224657 23 324 3.2 3.2 0.00 0.00 0.00 33 1017.3
20260503224155 23 2 4.8 4.8 0.00 0.00 0.00 32 1017.2
20260503223652 23 20 4.8 8.0 0.00 0.00 0.00 35 1017.1
20260503223149 23 307 12.9 14.5 0.00 0.00 0.00 34 1017.1
20260503222646 23 336 3.2 3.2 0.00 0.00 0.00 32 1017.0
20260503222143 23 317 11.3 12.9 0.00 0.00 0.00 33 1017.1
20260503221642 23 311 8.0 9.7 0.00 0.00 0.00 33 1017.0
20260503221139 23 333 11.3 12.9 0.00 0.00 0.00 34 1017.0
20260503220635 23 19 8.0 9.7 0.00 0.00 0.00 33 1017.0
20260503220132 23 17 8.0 11.3 0.00 0.00 0.00 33 1016.9
20260503215630 23 346 4.8 8.0 0.00 0.00 0.00 32 1017.2
20260503215126 23 340 4.8 4.8 0.00 0.00 0.00 34 1017.1
20260503214625 23 303 6.4 8.0 0.00 0.00 0.00 33 1017.3
20260503214120 23 312 12.9 16.1 0.00 0.00 0.00 33 1017.3
20260503213620 23 329 8.0 9.7 0.00 0.00 0.00 34 1017.3
20260503213116 23 296 9.7 11.3 0.00 0.00 0.00 33 1017.5
20260503212613 23 342 8.0 11.3 0.00 0.00 0.00 34 1017.5
20260503212111 23 359 6.4 9.7 0.00 0.00 0.00 32 1017.6
20260503211608 23 332 6.4 8.0 0.00 0.00 0.00 33 1017.5
20260503211103 23 341 6.4 8.0 0.00 0.00 0.00 32 1017.6
20260503210600 23 319 9.7 12.9 0.00 0.00 0.00 33 1017.8
20260503210055 23 50 8.0 12.9 0.00 0.00 0.00 34 1017.7
20260503205552 23 298 12.9 16.1 0.00 0.00 0.00 35 1017.6
20260503205049 23 323 8.0 11.3 0.00 0.00 0.00 33 1017.8
20260503204546 23 347 4.8 8.0 0.00 0.00 0.00 36 1018.2
20260503204043 23 357 9.7 11.3 0.00 0.00 0.00 36 1017.8
20260503203540 23 13 3.2 3.2 0.00 0.00 0.00 33 1017.8
20260503203037 23 309 8.0 9.7 0.00 0.00 0.00 33 1018.2
20260503202535 23 328 6.4 11.3 0.00 0.00 0.00 32 1018.4
20260503202033 23 45 3.2 3.2 0.00 0.00 0.00 35 1018.4
20260503201531 23 316 9.7 11.3 0.00 0.00 0.00 33 1018.5
20260503201028 23 36 12.9 12.9 0.00 0.00 0.00 29 1018.8
20260503200524 23 308 9.7 11.3 0.00 0.00 0.00 34 1018.9
20260503200021 23 342 12.9 14.5 0.00 0.00 0.00 34 1018.9
20260503195518 23 273 4.8 8.0 0.00 0.00 0.00 35 1019.1
20260503195015 23 73 4.8 4.8 0.00 0.00 0.00 34 1019.0
20260503194512 23 321 6.4 9.7 0.00 0.00 0.00 32 1019.1
20260503194011 23 22 4.8 8.0 0.00 0.00 0.00 29 1019.4
20260503193508 23 14 6.4 8.0 0.00 0.00 0.00 32 1019.3
20260503193004 23 14 17.7 25.7 0.00 0.00 0.00 32 1019.4
20260503192500 23 307 14.5 16.1 0.00 0.00 0.00 35 1019.6
20260503191955 23 306 6.4 8.0 0.00 0.00 0.00 32 1019.4
20260503191453 23 331 4.8 4.8 0.00 0.00 0.00 35 1019.4
20260503190949 22 60 6.4 11.3 0.00 0.00 0.00 36 1019.7
20260503190447 23 358 9.7 12.9 0.00 0.00 0.00 32 1019.8
20260503185944 22 323 17.7 22.5 0.00 0.00 0.00 31 1019.8
20260503185440 22 299 14.5 16.1 0.00 0.00 0.00 33 1019.9
20260503184940 23 346 14.5 17.7 0.00 0.00 0.00 33 1020.0
20260503184436 23 27 4.8 4.8 0.00 0.00 0.00 34 1019.9
20260503183933 22 333 9.7 11.3 0.00 0.00 0.00 32 1020.0
20260503183429 22 342 6.4 8.0 0.00 0.00 0.00 34 1020.2
20260503182926 22 337 6.4 8.0 0.00 0.00 0.00 39 1020.0
20260503182425 22 14 8.0 9.7 0.00 0.00 0.00 36 1020.0
20260503181922 22 341 6.4 9.7 0.00 0.00 0.00 34 1019.8
20260503181419 23 19 8.0 9.7 0.00 0.00 0.00 33 1020.1
20260503180915 22 15 11.3 12.9 0.00 0.00 0.00 34 1020.3
20260503180414 22 2 9.7 14.5 0.00 0.00 0.00 33 1020.1
20260503175909 22 309 12.9 14.5 0.00 0.00 0.00 35 1020.1
20260503175408 22 287 6.4 8.0 0.00 0.00 0.00 35 1020.2
20260503174903 22 41 9.7 11.3 0.00 0.00 0.00 37 1020.1
20260503174402 22 36 8.0 9.7 0.00 0.00 0.00 38 1020.6
20260503173856 22 290 8.0 9.7 0.00 0.00 0.00 35 1020.4
20260503173353 22 285 14.5 17.7 0.00 0.00 0.00 39 1020.5
20260503172850 22 3 14.5 20.9 0.00 0.00 0.00 37 1020.6
20260503172348 22 4 8.0 11.3 0.00 0.00 0.00 37 1020.6
20260503171843 22 4 3.2 3.2 0.00 0.00 0.00 37 1020.6
20260503171340 21 284 11.3 12.9 0.00 0.00 0.00 35 1020.7
20260503170838 22 269 9.7 12.9 0.00 0.00 0.00 39 1021.1
20260503170334 21 3 8.0 11.3 0.00 0.00 0.00 35 1021.1